TimeEDT,TemperatureF,Dew PointF,Humidity,Sea Level PressureIn,VisibilityMPH,Wind Direction,Wind SpeedMPH,Gust SpeedMPH,PrecipitationIn,Events,Conditions,WindDirDegrees,DateUTC
12:53 AM,70.0,66.9,90,29.96,7.0,SSW,4.6,-,N/A,,Clear,210,2013-05-22 04:53:00
1:53 AM,70.0,68.0,93,29.94,6.0,SSW,5.8,-,N/A,,Clear,200,2013-05-22 05:53:00
2:51 AM,69.8,66.2,88,29.96,5.0,SW,4.6,-,N/A,,Scattered Clouds,220,2013-05-22 06:51:00
2:53 AM,70.0,66.9,90,29.93,5.0,SW,5.8,-,N/A,,Scattered Clouds,220,2013-05-22 06:53:00
3:02 AM,69.8,66.2,88,29.96,6.0,SSW,4.6,-,N/A,,Mostly Cloudy,210,2013-05-22 07:02:00
3:22 AM,69.8,66.2,88,29.95,5.0,SSW,5.8,-,N/A,,Scattered Clouds,200,2013-05-22 07:22:00
3:53 AM,70.0,66.9,90,29.91,6.0,South,6.9,-,N/A,,Clear,190,2013-05-22 07:53:00
4:10 AM,69.8,66.2,88,29.95,6.0,SSW,5.8,-,N/A,,Scattered Clouds,210,2013-05-22 08:10:00
4:22 AM,69.8,66.2,88,29.95,6.0,SSW,5.8,-,N/A,,Mostly Cloudy,210,2013-05-22 08:22:00
4:53 AM,70.0,66.9,90,29.91,7.0,SSW,5.8,-,N/A,,Overcast,210,2013-05-22 08:53:00
5:14 AM,69.8,66.2,88,29.95,8.0,SSW,5.8,-,N/A,,Overcast,200,2013-05-22 09:14:00
5:53 AM,70.0,66.0,87,29.93,9.0,SW,6.9,-,N/A,,Overcast,220,2013-05-22 09:53:00
6:42 AM,69.8,66.2,88,29.99,9.0,SW,5.8,-,N/A,,Overcast,220,2013-05-22 10:42:00
6:53 AM,70.0,66.0,87,29.97,10.0,SW,8.1,-,N/A,,Overcast,230,2013-05-22 10:53:00
7:53 AM,71.1,64.9,81,29.98,10.0,SW,8.1,-,N/A,,Overcast,220,2013-05-22 11:53:00
8:53 AM,73.0,64.0,73,29.99,10.0,WSW,10.4,-,N/A,,Mostly Cloudy,250,2013-05-22 12:53:00
9:06 AM,73.4,64.4,73,30.02,10.0,SW,9.2,-,N/A,,Partly Cloudy,230,2013-05-22 13:06:00
9:26 AM,75.2,64.4,69,30.02,10.0,SSW,6.9,-,N/A,,Mostly Cloudy,210,2013-05-22 13:26:00
9:44 AM,75.2,64.4,69,30.01,10.0,SSW,9.2,16.1,N/A,,Scattered Clouds,200,2013-05-22 13:44:00
9:53 AM,75.0,64.9,71,29.98,10.0,SW,11.5,-,N/A,,Partly Cloudy,230,2013-05-22 13:53:00
10:53 AM,78.1,66.9,68,29.98,10.0,SW,8.1,16.1,N/A,,Partly Cloudy,220,2013-05-22 14:53:00
11:53 AM,81.0,66.9,62,29.97,10.0,Variable,5.8,-,N/A,,Partly Cloudy,0,2013-05-22 15:53:00
12:53 PM,82.0,68.0,62,29.95,10.0,SSW,8.1,-,N/A,,Partly Cloudy,210,2013-05-22 16:53:00
1:53 PM,82.0,68.0,62,29.94,10.0,SW,5.8,16.1,N/A,,Mostly Cloudy,220,2013-05-22 17:53:00
2:53 PM,82.9,66.9,58,29.92,10.0,SW,10.4,-,N/A,,Mostly Cloudy,220,2013-05-22 18:53:00
3:53 PM,82.9,66.9,58,29.90,10.0,South,9.2,-,N/A,,Partly Cloudy,190,2013-05-22 19:53:00
4:53 PM,82.9,66.9,58,29.88,10.0,South,6.9,-,N/A,,Partly Cloudy,190,2013-05-22 20:53:00
5:53 PM,82.0,64.9,56,29.87,10.0,SSW,9.2,-,N/A,,Clear,210,2013-05-22 21:53:00
6:53 PM,82.0,64.9,56,29.87,10.0,SSW,8.1,-,N/A,,Clear,200,2013-05-22 22:53:00
7:53 PM,78.1,66.0,66,29.89,10.0,South,3.5,-,N/A,,Clear,190,2013-05-22 23:53:00
8:53 PM,75.9,64.0,67,29.92,10.0,SSW,6.9,-,N/A,,Mostly Cloudy,210,2013-05-23 00:53:00
9:53 PM,73.9,63.0,68,29.94,10.0,NNW,3.5,-,N/A,,Mostly Cloudy,330,2013-05-23 01:53:00
10:53 PM,69.1,66.0,90,29.94,8.0,Calm,Calm,-,0.09,,Mostly Cloudy,0,2013-05-23 02:53:00
11:10 PM,71.6,64.4,78,29.97,10.0,WNW,3.5,-,N/A,,Overcast,290,2013-05-23 03:10:00
11:53 PM,68.0,63.0,84,29.93,4.0,WNW,5.8,-,0.08,Rain,Light Rain,290,2013-05-23 03:53:00